Weather History for Perry, IA

Change the Weather History Date:

Monday, August 19, 2013

  Actual Average Record
Temperature  
Mean Temperature 70 °F -  
Max Temperature 84 °F 82 °F 99 °F (1983)
Min Temperature 56 °F 59 °F 45 °F (1967)
Cooling Degree Days 5    
Growing Degree Days 20 (Base 50)    
Moisture  
Dew Point 59 °F    
Average Humidity 71    
Maximum Humidity 91    
Minimum Humidity 44    
Precipitation  
Precipitation 0.00 in - - ()
Sea Level Pressure  
Sea Level Pressure 30.04 in    
Wind  
Wind Speed 6 mph (South)    
Max Wind Speed 15 mph    
Max Gust Speed 22 mph    
Visibility 9 miles    
Events      
Averages and records for this station are not official NWS values.
T = Trace of Precipitation, MM = Missing Value Source: NWS Daily Summary

Daily Weather History Graph

Daily Weather History Graph

Search for Another Location

Airport:

Trip Planner

Search our weather history database for the weather conditions in past years. The results will help you decide how hot, cold, wet, or windy it might be!

Date:

Astronomy

Aug. 19, 2013 Rise Set
Actual Time 6:29 AM CDT 8:10 PM CDT
Civil Twilight 5:59 AM CDT 8:39 PM CDT
Nautical Twilight 5:23 AM CDT 9:15 PM CDT
Astronomical Twilight 4:45 AM CDT 9:53 PM CDT
Moon 7:01 PM CDT (8/19) 4:48 AM CDT (8/19)
Length of Visible Light 14h 40m
Length of Day
13h 41m
Waxing Gibbous, 97% of the Moon is Illuminated
Aug 19
Waxing Gibbous
Aug 20
Full
Aug 28
Last Quarter
Sep 5
New
Sep 12
First Quarter

Hourly Weather History & Observations

Time (CDT) Temp. Heat Index Dew Point Humidity Pressure Visibility Wind Dir Wind Speed Gust Speed Precip Events Conditions
12:15 AM 59.9 °F - 55.6 °F 86% 30.09 in 10.0 mi South 4.6 mph - N/A   Scattered Clouds
12:35 AM 59.0 °F - 55.0 °F 87% 30.09 in 10.0 mi South 4.6 mph - N/A   Scattered Clouds
12:55 AM 58.8 °F - 55.0 °F 87% 30.09 in 10.0 mi SSW 4.6 mph - N/A   Clear
1:15 AM 58.6 °F - 54.9 °F 87% 30.09 in 10.0 mi South 3.5 mph - N/A   Clear
1:35 AM 58.5 °F - 54.9 °F 88% 30.09 in 10.0 mi Calm Calm - N/A   Clear
1:55 AM 57.2 °F - 53.6 °F 88% 30.09 in 10.0 mi Calm Calm - N/A   Clear
2:15 AM 56.8 °F - 53.6 °F 89% 30.08 in 10.0 mi SSE 4.6 mph - N/A   Clear
2:35 AM 57.4 °F - 54.1 °F 89% 30.08 in 7.0 mi SSE 4.6 mph - N/A   Clear
2:55 AM 57.4 °F - 54.1 °F 89% 30.07 in 7.0 mi SSE 4.6 mph - N/A   Clear
3:15 AM 56.7 °F - 53.6 °F 89% 30.08 in 7.0 mi SSE 4.6 mph - N/A   Clear
3:35 AM 57.4 °F - 54.5 °F 90% 30.08 in 7.0 mi South 5.8 mph - N/A   Clear
3:55 AM 57.2 °F - 54.3 °F 90% 30.08 in 7.0 mi SSE 4.6 mph - N/A   Clear
4:15 AM 57.6 °F - 54.7 °F 90% 30.08 in 7.0 mi SSE 4.6 mph - N/A   Clear
4:35 AM 57.2 °F - 54.3 °F 90% 30.08 in 5.0 mi SSE 3.5 mph - N/A   Clear
4:55 AM 56.7 °F - 53.8 °F 90% 30.08 in 5.0 mi SSE 4.6 mph - N/A   Scattered Clouds
5:15 AM 56.8 °F - 54.1 °F 91% 30.08 in 5.0 mi SSE 4.6 mph - N/A   Mostly Cloudy
5:35 AM 56.8 °F - 54.1 °F 91% 30.08 in 5.0 mi SSE 3.5 mph - N/A   Scattered Clouds
5:55 AM 56.3 °F - 53.6 °F 91% 30.07 in 5.0 mi SSE 3.5 mph - N/A   Scattered Clouds
6:15 AM 57.2 °F - 54.5 °F 91% 30.07 in 5.0 mi SSE 4.6 mph - N/A   Clear
6:35 AM 58.1 °F - 55.4 °F 91% 30.07 in 5.0 mi SSE 5.8 mph - N/A   Clear
6:55 AM 58.5 °F - 55.4 °F 90% 30.06 in 4.0 mi SSE 4.6 mph - N/A   Clear
7:15 AM 59.0 °F - 55.8 °F 89% 30.07 in 4.0 mi South 3.5 mph - N/A   Clear
7:35 AM 59.4 °F - 56.3 °F 90% 30.07 in 4.0 mi South 4.6 mph - N/A   Clear
7:55 AM 60.3 °F - 57.2 °F 90% 30.07 in 4.0 mi SSE 4.6 mph - N/A   Clear
8:15 AM 60.8 °F - 57.4 °F 88% 30.08 in 5.0 mi South 3.5 mph - N/A   Clear
8:35 AM 62.8 °F - 59.0 °F 87% 30.08 in 5.0 mi SSE 5.8 mph - N/A   Scattered Clouds
8:55 AM 65.3 °F - 60.1 °F 83% 30.08 in 7.0 mi South 5.8 mph - N/A   Scattered Clouds
9:15 AM 66.7 °F - 59.9 °F 79% 30.08 in 7.0 mi South 6.9 mph - N/A   Clear
9:35 AM 67.5 °F - 61.0 °F 80% 30.08 in 10.0 mi South 6.9 mph - N/A   Scattered Clouds
9:55 AM 69.8 °F - 61.3 °F 74% 30.08 in 10.0 mi South 6.9 mph - N/A   Scattered Clouds
10:15 AM 72.7 °F - 61.9 °F 69% 30.08 in 10.0 mi SSW 9.2 mph - N/A   Clear
10:35 AM 73.9 °F - 62.2 °F 67% 30.08 in 10.0 mi SSW 10.4 mph - N/A   Clear
10:55 AM 76.3 °F - 62.4 °F 62% 30.07 in 10.0 mi South 11.5 mph - N/A   Clear
11:15 AM 77.2 °F - 62.4 °F 60% 30.07 in 10.0 mi South 9.2 mph - N/A   Clear
11:35 AM 79.0 °F - 61.9 °F 56% 30.07 in 10.0 mi SSW 10.4 mph 17.3 mph N/A   Clear
11:55 AM 80.1 °F 81.2 °F 62.2 °F 54% 30.06 in 10.0 mi South 11.5 mph 18.4 mph N/A   Scattered Clouds
12:15 PM 80.4 °F 81.6 °F 62.6 °F 54% 30.06 in 10.0 mi South 10.4 mph 18.4 mph N/A   Mostly Cloudy
12:35 PM 80.6 °F 81.6 °F 61.7 °F 52% 30.05 in 10.0 mi SSW 13.8 mph 18.4 mph N/A   Clear
12:55 PM 81.3 °F 82.3 °F 61.9 °F 52% 30.04 in 10.0 mi SSW 12.7 mph - N/A   Clear
1:15 PM 81.7 °F 82.6 °F 61.7 °F 51% 30.04 in 10.0 mi South 15.0 mph 19.6 mph N/A   Scattered Clouds
1:35 PM 82.6 °F 83.2 °F 61.9 °F 49% 30.04 in 10.0 mi SSW 11.5 mph 18.4 mph N/A   Scattered Clouds
1:55 PM 82.4 °F 82.9 °F 60.6 °F 48% 30.04 in 10.0 mi SSW 13.8 mph 18.4 mph N/A   Scattered Clouds
2:15 PM 82.6 °F 82.9 °F 60.3 °F 47% 30.03 in 10.0 mi SSW 13.8 mph 21.9 mph N/A   Scattered Clouds
2:35 PM 83.5 °F 83.7 °F 60.4 °F 46% 30.02 in 10.0 mi SSW 13.8 mph 18.4 mph N/A   Scattered Clouds
2:55 PM 82.8 °F 83.3 °F 61.0 °F 48% 30.02 in 10.0 mi South 11.5 mph 18.4 mph N/A   Mostly Cloudy
3:15 PM 82.8 °F 83.0 °F 60.3 °F 46% 30.01 in 10.0 mi SSW 12.7 mph - N/A   Overcast
3:35 PM 83.1 °F 83.3 °F 60.6 °F 46% 30.01 in 10.0 mi SSW 9.2 mph 18.4 mph N/A   Overcast
3:55 PM 83.7 °F 83.6 °F 59.7 °F 44% 30.00 in 10.0 mi SSW 13.8 mph 18.4 mph N/A   Scattered Clouds
4:15 PM 83.3 °F 83.4 °F 60.1 °F 45% 30.00 in 10.0 mi SSW 10.4 mph - N/A   Mostly Cloudy
4:35 PM 84.0 °F 84.4 °F 61.0 °F 46% 30.00 in 10.0 mi South 9.2 mph - N/A   Mostly Cloudy
4:55 PM 82.6 °F 82.8 °F 60.1 °F 46% 30.00 in 10.0 mi South 9.2 mph - N/A   Scattered Clouds
5:15 PM 82.9 °F 83.2 °F 59.9 °F 46% 29.99 in 10.0 mi SSW 10.4 mph - N/A   Clear
5:35 PM 83.3 °F 83.4 °F 60.1 °F 45% 29.99 in 10.0 mi South 12.7 mph - N/A   Clear
5:55 PM 81.7 °F 82.0 °F 59.9 °F 47% 29.99 in 10.0 mi SSW 8.1 mph - N/A   Scattered Clouds
6:15 PM 81.5 °F 81.8 °F 59.7 °F 47% 29.99 in 10.0 mi South 8.1 mph - N/A   Overcast
6:35 PM 81.0 °F 81.6 °F 60.3 °F 49% 29.99 in 10.0 mi South 6.9 mph - N/A   Overcast
6:55 PM 81.5 °F 82.0 °F 59.9 °F 48% 29.99 in 10.0 mi South 10.4 mph - N/A   Overcast
7:15 PM 80.4 °F 81.1 °F 59.9 °F 49% 29.99 in 10.0 mi South 6.9 mph - N/A   Scattered Clouds
7:35 PM 78.4 °F - 60.8 °F 55% 29.99 in 10.0 mi South 6.9 mph - N/A   Clear
7:55 PM 75.9 °F - 61.2 °F 60% 29.98 in 10.0 mi South 5.8 mph - N/A   Clear
8:15 PM 73.8 °F - 61.2 °F 65% 29.98 in 10.0 mi South 5.8 mph - N/A   Clear
8:35 PM 72.5 °F - 61.0 °F 67% 29.99 in 10.0 mi South 5.8 mph - N/A   Clear
8:55 PM 70.7 °F - 61.3 °F 72% 29.99 in 10.0 mi South 5.8 mph - N/A   Clear
9:15 PM 70.2 °F - 61.2 °F 73% 29.99 in 10.0 mi South 4.6 mph - N/A   Clear
9:35 PM 69.1 °F - 61.2 °F 76% 30.00 in 10.0 mi South 5.8 mph - N/A   Scattered Clouds
9:55 PM 69.1 °F - 61.2 °F 76% 30.00 in 10.0 mi South 5.8 mph - N/A   Clear
10:15 PM 68.4 °F - 61.0 °F 77% 30.00 in 10.0 mi South 5.8 mph - N/A   Clear
10:35 PM 68.4 °F - 61.0 °F 77% 30.00 in 10.0 mi SSE 4.6 mph - N/A   Clear
10:55 PM 67.6 °F - 61.0 °F 79% 30.00 in 10.0 mi South 5.8 mph - N/A   Clear
11:15 PM 66.6 °F - 61.0 °F 82% 30.00 in 10.0 mi South 5.8 mph - N/A   Clear
11:35 PM 66.6 °F - 60.8 °F 82% 29.99 in 10.0 mi South 5.8 mph - N/A   Clear
11:55 PM 66.7 °F - 61.0 °F 82% 29.99 in 10.0 mi South 5.8 mph - N/A   Clear